Find Globalstar M002

NORAD ID: 25164 Int'l Des: 1998-008 Owner: GLOBT Country: US Constellation: globalstar operational
LEOCIRCULAR

Live-Position

3D-Globus wird geladen...

Über Globalstar M002

Beschreibung wird geladen...

Nächste Überflüge

Passes for default location (London). Set your location on the main map for personalized predictions.

Höhenverlauf

Loading altitude history...

Zweizeiliger Elementsatz

1 25164U 98008C 26139.30435810 -.00000094 00000-0 -35173-3 0 9995
2 25164 51.9984 117.4374 0001487 30.2815 329.8090 11.61516508223127
Epoch: 19. Mai 2026 • Age: 18 hours

Aktueller Status

Höhe 1875.7 km
Geschwindigkeit 6.95 km/s
Subsatellitenpunkt -50.14°S, 147.37°E
Startdatum 14. Feb. 1998
Alter 28.2 years
Typ communications

Technische Details

Klassifizierung Payload
Masse 450.00 kg
Trockenmasse 380.00 kg
Gesamtmasse 450.00 kg
Länge 1.50 m
Durchmesser 0.60 m
Spannweite 12.00 m
Form Box + 2 Pan
Hersteller LOR
Bus-Typ LS-400
Phasenstatus In Orbit
Besitzer/Staat GLOBT/US

Most Searched